Location: Beverley
(50.2667°N, 107.9667°W)
Time: 02:17:27
(UTC+00:00)

ZACube-1 - Pass Details

Date: 29 June 2022
Orbit: 581 x 661 km, 97.6° (Epoch: 17 August)

Event Time Altitude Azimuth Distance (km) Brightness Sun altitude
Rises 09:40:35 0° 32° (NNE) 2,942 ? -9.8°
Reaches altitude 10° 09:44:21 10° 65° (ENE) 2,046 ? -9.5°
Maximum altitude 09:45:55 12° 86° (E) 1,943 ? -9.3°
Drops below altitude 10° 09:47:28 10° 106° (ESE) 2,054 ? -9.2°
Sets 09:51:16 0° 139° (SE) 2,972 ? -8.8°
